Regional Weather Roundup
Issued by NWS Midland/Odessa, TX

Skip options and go directly to product.
Home | Oldest Version | Previous Version | Current Version | All | Graphics & Text | Save Text | Print | Product List | Glossary On

Skip product version selection by date and time.   
267
ASUS44 KMAF 211402
RWRMAF
MIDLAND AREA WEATHER ROUNDUP
NATIONAL WEATHER SERVICE MIDLAND TX
900 AM CDT THU AUG 21 2014

...IN SOUTHWEST TEXAS AND SOUTHEAST NEW MEXICO...

CITY           SKY/WX    TMP DP  RH WIND       PRES   REMARKS
ALPINE         MOSUNNY   73  61  66 SW7       30.20R
ANDREWS        FAIR      75  65  69 S16G24    30.04R
ARTESIA        SUNNY     75  54  46 SW12      30.03R
BIG SPRING     SUNNY     79  68  69 S21       30.05R
CARLSBAD       MOSUNNY   72  57  59 CALM      30.00R
DRYDEN           N/A     83  69  62 SE10      30.02R
FORT STOCKTON  PTSUNNY   76  64  66 S13       30.04R
GUAD PASS      SUNNY     69  55  60 SW15      30.18R
HOBBS          MOSUNNY   75  63  64 S16       30.05R
MARFA          MOSUNNY   66  63  88 S3        30.20R
MIDLAND AIRPK  SUNNY     79  67  67 S16G23    30.03S
MIDLAND INTL   SUNNY     77  68  73 S17       30.03R
ODESSA         SUNNY     76  67  73 S16G26    30.05R
PECOS          SUNNY     75  63  66 E7        30.00R
PRESIDIO       FAIR      77  63  61 SE6       30.05R
SEMINOLE       MOSUNNY   74  62  64 S13       30.05R
SNYDER         MOSUNNY   77  69  76 S17       30.03S
WINK           SUNNY     78  63  59 SE14      30.01R
$$
...OTHER STATIONS IN TEXAS...

CITY           SKY/WX    TMP DP  RH WIND       PRES   REMARKS
ABILENE        SUNNY     79  70  74 S15G24    30.03R
AMARILLO       SUNNY     76  64  66 S21       30.03R
AUSTIN         MOSUNNY   83  74  74 S12G23    30.05R
BROWNSVILLE    SUNNY     85  77  77 S16       30.03S
CORPUS CHRISTI MOSUNNY   84  77  79 S16       30.04R
DALLAS FTW     MOSUNNY   83  73  72 S15       30.03S
DEL RIO        CLOUDY    82  72  71 SE13      29.99R
EL PASO        MOSUNNY   73  51  46 S3        30.07R
HOUSTON INT    PTSUNNY   84  79  85 S8        30.09R
LUBBOCK        MOSUNNY   75  64  68 S20       30.03R
SAN ANGELO     PTSUNNY   81  71  71 S9        30.03R
SAN ANTONIO    MOSUNNY   82  73  74 S16       30.06R
WACO           MOSUNNY   83  75  77 S16       30.04S
WICHITA FALLS  NOT AVBL
$$
...OTHER LOCATIONS IN NEW MEXICO...

CITY           SKY/WX    TMP DP  RH WIND       PRES   REMARKS
ALAMAGORDO     MOSUNNY   72  50  46 S8        30.09R
ALBUQUERQUE    MOSUNNY   70  46  42 CALM      30.17R
CANNON AFB     NOT AVBL
CLOVIS           N/A     70  61  73 SW9       30.08S
HOLLOMAN AFB   MOSUNNY   73  51  45 S10       30.06R
ROSWELL        SUNNY     72  61  68 CALM      30.02R
RUIDOSO        SUNNY     63  45  51 W6        30.27R
SANTA FE       SUNNY     66  40  38 NW6       30.21R
TRUTH OR CONSE SUNNY     70  48  45 N5        30.12R
TUCUMCARI      MOSUNNY   75  60  59 SW12      30.01R
$$

USA.gov is the U.S. government's official web portal to all federal, state and local government web resources and services.